BAW890 EGLL-UGTB

Flight info

Callsign BAW890
Flight time 4h 27m
Altitude 35000
Route DET1J DET L6 DVR UL9 KONAN UL607 SPI DCT FR DCT MOOCE L604 RUDNO DCT MASUR DCT WONTA DCT OLMIP DCT ARGES DCT NEDSI T343 UDROS UM859 KARDE UN644 ROLIN N644 LAGAS
Aircraft A320/M-SDE3FGHIRWY/LB1

Departure

Time 2026-04-22 08:37
Airport London Heathrow Airport (EGLL)

Arrival

Time 2026-04-22 13:04
Airport Tbilisi International Airport (UGTB)
Time Latitude Longitude Altitude Speed Heading
2026-04-22 07:33 51.46984 -0.47723 89 ft 0 kts 89°
2026-04-22 08:26 51.46984 -0.47724 86 ft 1 kts 89°
2026-04-22 08:26 51.46984 -0.47746 89 ft 3 kts 89°
2026-04-22 08:27 51.46984 -0.47778 89 ft 3 kts 89°
2026-04-22 08:27 51.46983 -0.47810 89 ft 3 kts 91°
2026-04-22 08:27 51.46986 -0.47841 88 ft 3 kts 116°
2026-04-22 08:27 51.46996 -0.47863 90 ft 3 kts 156°
2026-04-22 08:28 51.47009 -0.47869 87 ft 1 kts 179°
2026-04-22 08:28 51.47023 -0.47869 88 ft 2 kts 179°
2026-04-22 08:28 51.47026 -0.47869 88 ft 0 kts 179°
2026-04-22 08:32 51.47023 -0.47869 88 ft 2 kts 179°
2026-04-22 08:32 51.46996 -0.47869 89 ft 5 kts 179°
2026-04-22 08:32 51.46946 -0.47868 86 ft 10 kts 180°
2026-04-22 08:32 51.46865 -0.47868 86 ft 13 kts 179°
2026-04-22 08:33 51.46778 -0.47867 86 ft 9 kts 180°
2026-04-22 08:33 51.46744 -0.47939 88 ft 9 kts 264°
2026-04-22 08:33 51.46744 -0.48051 86 ft 10 kts 270°
2026-04-22 08:33 51.46744 -0.48126 86 ft 6 kts 270°
2026-04-22 08:34 51.46732 -0.48196 91 ft 7 kts 230°
2026-04-22 08:34 51.46681 -0.48213 86 ft 8 kts 180°
2026-04-22 08:34 51.46621 -0.48214 86 ft 9 kts 181°
2026-04-22 08:34 51.46559 -0.48214 87 ft 9 kts 179°
2026-04-22 08:35 51.46499 -0.48206 91 ft 9 kts 159°
2026-04-22 08:35 51.46479 -0.48112 89 ft 11 kts 88°
2026-04-22 08:35 51.46479 -0.48065 87 ft 0 kts 90°
2026-04-22 08:36 51.46479 -0.48048 87 ft 5 kts 90°
2026-04-22 08:36 51.46481 -0.47710 86 ft 63 kts 90°
2026-04-22 08:36 51.46484 -0.46697 90 ft 116 kts 90°
2026-04-22 08:37 51.46487 -0.45160 93 ft 158 kts 90°
2026-04-22 08:37 51.46484 -0.43363 603 ft 161 kts 89°
2026-04-22 08:37 51.46400 -0.41550 1299 ft 165 kts 104°
2026-04-22 08:37 51.45814 -0.39898 1840 ft 178 kts 122°
2026-04-22 08:38 51.45027 -0.38328 2193 ft 183 kts 123°
2026-04-22 08:38 51.44284 -0.36538 2425 ft 204 kts 117°
2026-04-22 08:38 51.43615 -0.34404 2731 ft 223 kts 104°
2026-04-22 08:38 51.43295 -0.31924 3425 ft 230 kts 102°
2026-04-22 08:39 51.42950 -0.29414 4218 ft 232 kts 103°
2026-04-22 08:39 51.42585 -0.26877 5030 ft 235 kts 103°
2026-04-22 08:39 51.42222 -0.24307 5808 ft 238 kts 103°
2026-04-22 08:39 51.41865 -0.21731 6537 ft 242 kts 102°
2026-04-22 08:40 51.41495 -0.19029 7259 ft 247 kts 102°
2026-04-22 08:40 51.41126 -0.16323 7947 ft 251 kts 102°
2026-04-22 08:40 51.40754 -0.13596 8624 ft 255 kts 102°
2026-04-22 08:40 51.40369 -0.10799 9318 ft 259 kts 102°
2026-04-22 08:41 51.39978 -0.07964 9999 ft 263 kts 102°
2026-04-22 08:41 51.39580 -0.05081 10551 ft 271 kts 102°
2026-04-22 08:41 51.39154 -0.02013 10688 ft 293 kts 102°
2026-04-22 08:41 51.38694 0.01283 10830 ft 314 kts 102°
2026-04-22 08:42 51.38206 0.04769 11177 ft 325 kts 102°
2026-04-22 08:42 51.37709 0.08329 11718 ft 329 kts 102°
2026-04-22 08:42 51.37207 0.11920 12271 ft 332 kts 102°
2026-04-22 08:42 51.36696 0.15555 12844 ft 336 kts 102°
2026-04-22 08:43 51.36179 0.19222 13396 ft 339 kts 102°
2026-04-22 08:43 51.35657 0.22923 13974 ft 343 kts 102°
2026-04-22 08:43 51.35129 0.26655 14510 ft 345 kts 102°
2026-04-22 08:43 51.34595 0.30419 14983 ft 349 kts 102°
2026-04-22 08:44 51.34057 0.34229 15448 ft 353 kts 102°
2026-04-22 08:44 51.33512 0.38078 15937 ft 355 kts 101°
2026-04-22 08:44 51.32963 0.41932 16383 ft 360 kts 101°
2026-04-22 08:44 51.32407 0.45813 16951 ft 365 kts 102°
2026-04-22 08:45 51.31835 0.49793 17416 ft 368 kts 102°
2026-04-22 08:45 51.31259 0.53779 17944 ft 369 kts 101°
2026-04-22 08:45 51.30676 0.57806 18373 ft 374 kts 101°
2026-04-22 08:45 51.30062 0.61881 18755 ft 379 kts 103°
2026-04-22 08:46 51.29363 0.65968 19133 ft 383 kts 103°
2026-04-22 08:46 51.28607 0.70068 19492 ft 388 kts 104°
2026-04-22 08:46 51.27815 0.74223 19819 ft 393 kts 104°
2026-04-22 08:46 51.27008 0.78437 20152 ft 398 kts 105°
2026-04-22 08:47 51.26202 0.82688 20490 ft 403 kts 104°
2026-04-22 08:47 51.25396 0.86985 20829 ft 407 kts 104°
2026-04-22 08:47 51.24587 0.91343 21178 ft 411 kts 104°
2026-04-22 08:47 51.24050 0.94256 21378 ft 413 kts 104°
2026-04-22 08:48 51.22969 1.00119 21958 ft 415 kts 104°
2026-04-22 08:48 51.22416 1.03105 22223 ft 416 kts 104°
2026-04-22 08:48 51.21588 1.07559 22578 ft 420 kts 104°
2026-04-22 08:48 51.20756 1.12031 22918 ft 423 kts 104°
2026-04-22 08:49 51.19912 1.16552 23249 ft 427 kts 103°
2026-04-22 08:49 51.19063 1.21079 23570 ft 431 kts 103°
2026-04-22 08:49 51.18203 1.25636 23887 ft 434 kts 103°
2026-04-22 08:49 51.17318 1.30312 24162 ft 438 kts 103°
2026-04-22 08:50 51.16493 1.34989 24450 ft 439 kts 98°
2026-04-22 08:50 51.16068 1.39793 24731 ft 437 kts 90°
2026-04-22 08:50 51.15857 1.44633 25062 ft 438 kts 91°
2026-04-22 08:50 51.15640 1.49394 25474 ft 437 kts 91°
2026-04-22 08:51 51.15409 1.54231 25781 ft 438 kts 91°
2026-04-22 08:51 51.15171 1.59089 26063 ft 441 kts 91°
2026-04-22 08:51 51.14926 1.63970 26323 ft 443 kts 91°
2026-04-22 08:51 51.14678 1.68887 26575 ft 446 kts 91°
2026-04-22 08:52 51.14426 1.73838 26836 ft 449 kts 91°
2026-04-22 08:52 51.14173 1.78806 27098 ft 452 kts 91°
2026-04-22 08:52 51.13918 1.83811 27356 ft 454 kts 91°
2026-04-22 08:52 51.13660 1.88846 27621 ft 457 kts 91°
2026-04-22 08:53 51.13397 1.93893 28066 ft 455 kts 91°
2026-04-22 08:53 51.13134 1.98889 28600 ft 452 kts 91°
2026-04-22 08:53 51.12873 2.03872 28995 ft 451 kts 91°
2026-04-22 08:53 51.12615 2.08786 29356 ft 452 kts 91°
2026-04-22 08:54 51.12351 2.13777 29700 ft 453 kts 90°
2026-04-22 08:54 51.12081 2.18836 30057 ft 453 kts 90°
2026-04-22 08:54 51.11817 2.23776 30391 ft 454 kts 90°
2026-04-22 08:54 51.11544 2.28783 30708 ft 454 kts 90°
2026-04-22 08:55 51.11267 2.33796 31038 ft 454 kts 91°
2026-04-22 08:55 51.10986 2.38795 31418 ft 452 kts 92°
2026-04-22 08:55 51.10705 2.43737 32010 ft 445 kts 92°
2026-04-22 08:55 51.10421 2.48644 32464 ft 443 kts 92°
2026-04-22 08:56 51.10139 2.53514 32806 ft 443 kts 92°
2026-04-22 08:56 51.09858 2.58403 33137 ft 443 kts 92°
2026-04-22 08:56 51.09563 2.63286 33325 ft 445 kts 95°
2026-04-22 08:57 51.08074 2.73036 33352 ft 462 kts 103°
2026-04-22 08:57 51.06281 2.82891 33355 ft 466 kts 104°
2026-04-22 08:58 51.04480 2.92702 33354 ft 459 kts 104°
2026-04-22 08:58 51.02697 3.02424 33352 ft 458 kts 104°
2026-04-22 08:59 51.00911 3.12125 33348 ft 457 kts 104°
2026-04-22 08:59 50.99116 3.21812 33348 ft 457 kts 104°
2026-04-22 09:00 50.97301 3.31609 33364 ft 457 kts 104°
2026-04-22 09:00 50.95530 3.41103 33364 ft 457 kts 104°
2026-04-22 09:00 50.94616 3.45974 33706 ft 456 kts 104°
2026-04-22 09:01 50.93711 3.50790 34055 ft 455 kts 104°
2026-04-22 09:01 50.92805 3.55592 34372 ft 455 kts 104°
2026-04-22 09:01 50.91903 3.60340 34627 ft 455 kts 104°
2026-04-22 09:01 50.90979 3.65205 34865 ft 455 kts 104°
2026-04-22 09:02 50.90064 3.70007 35093 ft 456 kts 105°
2026-04-22 09:02 50.89139 3.74809 35278 ft 457 kts 105°
2026-04-22 09:02 50.88218 3.79561 35342 ft 457 kts 105°
2026-04-22 09:03 50.86350 3.89159 35340 ft 456 kts 105°
2026-04-22 09:03 50.84483 3.98751 35344 ft 456 kts 105°
2026-04-22 09:04 50.82610 4.08326 35347 ft 456 kts 105°
2026-04-22 09:04 50.80720 4.17907 35354 ft 456 kts 105°
2026-04-22 09:05 50.78827 4.27468 35349 ft 456 kts 105°
2026-04-22 09:05 50.76928 4.37063 35348 ft 457 kts 105°
2026-04-22 09:06 50.75013 4.46649 35348 ft 458 kts 105°
2026-04-22 09:06 50.73087 4.56228 35351 ft 458 kts 105°
2026-04-22 09:07 50.71170 4.65823 35357 ft 458 kts 105°
2026-04-22 09:07 50.69310 4.75442 35360 ft 458 kts 104°
2026-04-22 09:08 50.67453 4.85047 35352 ft 458 kts 104°
2026-04-22 09:08 50.65594 4.94581 35343 ft 458 kts 105°
2026-04-22 09:09 50.63649 5.04144 35341 ft 458 kts 105°
2026-04-22 09:09 50.61657 5.13701 35363 ft 458 kts 106°
2026-04-22 09:10 50.59672 5.23228 35353 ft 458 kts 105°
2026-04-22 09:10 50.57690 5.32745 35353 ft 457 kts 105°
2026-04-22 09:11 50.55705 5.42239 35338 ft 457 kts 106°
2026-04-22 09:11 50.53714 5.51732 35337 ft 457 kts 106°
2026-04-22 09:12 50.51730 5.61165 35353 ft 456 kts 104°
2026-04-22 09:12 50.50351 5.70874 35336 ft 453 kts 99°
2026-04-22 09:13 50.49062 5.80514 35330 ft 454 kts 99°
2026-04-22 09:13 50.47754 5.90218 35329 ft 454 kts 99°
2026-04-22 09:14 50.46437 5.99922 35323 ft 454 kts 99°
2026-04-22 09:14 50.45118 6.09612 35347 ft 454 kts 99°
2026-04-22 09:15 50.43793 6.19306 35333 ft 454 kts 99°
2026-04-22 09:15 50.42455 6.28979 35328 ft 453 kts 99°
2026-04-22 09:16 50.41119 6.38586 35315 ft 453 kts 99°
2026-04-22 09:16 50.39769 6.48242 35333 ft 453 kts 99°
2026-04-22 09:17 50.38407 6.57899 35329 ft 453 kts 99°
2026-04-22 09:17 50.37037 6.67568 35331 ft 453 kts 99°
2026-04-22 09:18 50.35672 6.77135 35330 ft 453 kts 99°
2026-04-22 09:18 50.34287 6.86768 35333 ft 453 kts 99°
2026-04-22 09:19 50.32893 6.96385 35363 ft 453 kts 99°
2026-04-22 09:19 50.31496 7.05994 35358 ft 452 kts 99°
2026-04-22 09:20 50.30112 7.15505 35360 ft 451 kts 99°
2026-04-22 09:20 50.28708 7.25052 35342 ft 451 kts 100°
2026-04-22 09:21 50.27291 7.34610 35339 ft 450 kts 100°
2026-04-22 09:21 50.25868 7.44156 35351 ft 450 kts 100°
2026-04-22 09:22 50.24442 7.53687 35342 ft 450 kts 100°
2026-04-22 09:22 50.23011 7.63198 35345 ft 450 kts 100°
2026-04-22 09:23 50.21566 7.72714 35341 ft 450 kts 100°
2026-04-22 09:23 50.20117 7.82218 35373 ft 450 kts 101°
2026-04-22 09:24 50.18654 7.91730 35366 ft 450 kts 101°
2026-04-22 09:24 50.17182 8.01235 35362 ft 450 kts 101°
2026-04-22 09:25 50.15713 8.10670 35360 ft 450 kts 101°
2026-04-22 09:25 50.14233 8.20147 35358 ft 450 kts 101°
2026-04-22 09:26 50.12745 8.29629 35377 ft 450 kts 101°
2026-04-22 09:26 50.11250 8.39096 35359 ft 450 kts 101°
2026-04-22 09:27 50.09739 8.48586 35356 ft 451 kts 101°
2026-04-22 09:27 50.08225 8.58068 35354 ft 451 kts 101°
2026-04-22 09:28 50.06705 8.67537 35353 ft 451 kts 101°
2026-04-22 09:28 50.05196 8.76950 35350 ft 452 kts 101°
2026-04-22 09:29 50.03662 8.86431 35342 ft 452 kts 102°
2026-04-22 09:29 50.02116 8.95906 35338 ft 452 kts 102°
2026-04-22 09:30 50.00564 9.05374 35332 ft 452 kts 102°
2026-04-22 09:30 49.99010 9.14843 35349 ft 452 kts 102°
2026-04-22 09:31 49.97450 9.24306 35346 ft 451 kts 102°
2026-04-22 09:31 49.95878 9.33742 35337 ft 451 kts 102°
2026-04-22 09:32 49.94308 9.43168 35333 ft 450 kts 102°
2026-04-22 09:32 49.92994 9.50991 35324 ft 450 kts 102°
2026-04-22 09:33 49.91404 9.60397 35346 ft 450 kts 102°
2026-04-22 09:33 49.89810 9.69801 35338 ft 450 kts 102°
2026-04-22 09:34 49.88208 9.79179 35330 ft 449 kts 102°
2026-04-22 09:34 49.86596 9.88539 35332 ft 449 kts 102°
2026-04-22 09:35 49.84173 10.02558 35369 ft 449 kts 102°
2026-04-22 09:35 49.82550 10.11897 35357 ft 448 kts 102°
2026-04-22 09:36 49.80936 10.21154 35362 ft 447 kts 102°
2026-04-22 09:36 49.79303 10.30455 35358 ft 447 kts 102°
2026-04-22 09:37 49.77659 10.39755 35347 ft 447 kts 102°
2026-04-22 09:37 49.76015 10.49029 35364 ft 447 kts 102°
2026-04-22 09:38 49.74359 10.58286 35356 ft 446 kts 103°
2026-04-22 09:38 49.72707 10.67478 35349 ft 446 kts 103°
2026-04-22 09:39 49.71044 10.76711 35338 ft 446 kts 103°
2026-04-22 09:39 49.69374 10.85937 35336 ft 446 kts 103°
2026-04-22 09:40 49.67697 10.95168 35353 ft 446 kts 103°
2026-04-22 09:40 49.66006 11.04393 35326 ft 446 kts 103°
2026-04-22 09:41 49.64304 11.13608 35330 ft 447 kts 103°
2026-04-22 09:41 49.62614 11.22771 35322 ft 447 kts 103°
2026-04-22 09:42 49.60901 11.31995 35336 ft 447 kts 103°
2026-04-22 09:42 49.59177 11.41205 35329 ft 447 kts 103°
2026-04-22 09:43 49.57449 11.50415 35321 ft 447 kts 103°
2026-04-22 09:43 49.55647 11.59586 35310 ft 448 kts 105°
2026-04-22 09:44 49.53567 11.68649 35308 ft 449 kts 107°
2026-04-22 09:44 49.51418 11.77672 35326 ft 448 kts 107°
2026-04-22 09:45 49.49330 11.86648 35321 ft 448 kts 107°
2026-04-22 09:45 49.47258 11.95684 35314 ft 448 kts 106°
2026-04-22 09:46 49.45179 12.04706 35310 ft 448 kts 107°
2026-04-22 09:46 49.43091 12.13741 35323 ft 448 kts 106°
2026-04-22 09:47 49.41001 12.22751 35315 ft 447 kts 107°
2026-04-22 09:47 49.38879 12.31753 35311 ft 447 kts 107°
2026-04-22 09:48 49.36762 12.40712 35308 ft 447 kts 107°
2026-04-22 09:48 49.34657 12.49628 35305 ft 447 kts 107°
2026-04-22 09:49 49.32484 12.58573 35323 ft 447 kts 108°
2026-04-22 09:49 49.30138 12.67412 35314 ft 447 kts 109°
2026-04-22 09:50 49.27738 12.76201 35305 ft 447 kts 109°
2026-04-22 09:50 49.25356 12.85008 35302 ft 447 kts 109°
2026-04-22 09:51 49.22994 12.93825 35282 ft 448 kts 109°
2026-04-22 09:51 49.20635 13.02585 35277 ft 448 kts 109°
2026-04-22 09:52 49.18249 13.11409 35276 ft 449 kts 109°
2026-04-22 09:52 49.15855 13.20223 35275 ft 449 kts 109°
2026-04-22 09:53 49.13445 13.29045 35278 ft 450 kts 110°
2026-04-22 09:53 49.11032 13.37850 35302 ft 450 kts 109°
2026-04-22 09:54 49.08617 13.46660 35290 ft 450 kts 110°
2026-04-22 09:54 49.06184 13.55456 35289 ft 450 kts 110°
2026-04-22 09:55 49.03756 13.64244 35290 ft 450 kts 110°
2026-04-22 09:55 49.01320 13.73011 35287 ft 450 kts 110°
2026-04-22 09:56 48.98876 13.81770 35301 ft 450 kts 110°
2026-04-22 09:56 48.96424 13.90536 35286 ft 450 kts 110°
2026-04-22 09:57 48.93979 13.99245 35285 ft 450 kts 110°
2026-04-22 09:57 48.91512 14.07989 35277 ft 450 kts 110°
2026-04-22 09:58 48.89036 14.16737 35301 ft 450 kts 110°
2026-04-22 09:58 48.86552 14.25475 35293 ft 450 kts 110°
2026-04-22 09:59 48.84068 14.34193 35272 ft 451 kts 110°
2026-04-22 09:59 48.81568 14.42925 35265 ft 451 kts 110°
2026-04-22 10:00 48.79063 14.51663 35263 ft 452 kts 110°
2026-04-22 10:00 48.76546 14.60411 35282 ft 452 kts 110°
2026-04-22 10:01 48.74019 14.69148 35276 ft 453 kts 111°
2026-04-22 10:01 48.71481 14.77889 35274 ft 453 kts 111°
2026-04-22 10:02 48.68956 14.86554 35273 ft 453 kts 111°
2026-04-22 10:02 48.66410 14.95263 35282 ft 453 kts 111°
2026-04-22 10:03 48.63850 15.03967 35276 ft 453 kts 111°
2026-04-22 10:03 48.61292 15.12672 35262 ft 453 kts 111°
2026-04-22 10:04 48.58731 15.21365 35258 ft 453 kts 111°
2026-04-22 10:04 48.56157 15.30047 35252 ft 453 kts 111°
2026-04-22 10:05 48.53565 15.38728 35265 ft 453 kts 111°
2026-04-22 10:05 48.50961 15.47395 35249 ft 453 kts 112°
2026-04-22 10:06 48.48293 15.56022 35247 ft 454 kts 112°
2026-04-22 10:06 48.45587 15.64623 35245 ft 454 kts 112°
2026-04-22 10:07 48.42887 15.73223 35243 ft 455 kts 113°
2026-04-22 10:07 48.40189 15.81856 35228 ft 456 kts 112°
2026-04-22 10:08 48.37501 15.90427 35218 ft 456 kts 113°
2026-04-22 10:08 48.34775 15.99056 35219 ft 457 kts 113°
2026-04-22 10:09 48.32044 16.07680 35237 ft 457 kts 113°
2026-04-22 10:09 48.29307 16.16309 35229 ft 457 kts 113°
2026-04-22 10:10 48.26565 16.24925 35243 ft 457 kts 113°
2026-04-22 10:10 48.23830 16.33489 35234 ft 457 kts 113°
2026-04-22 10:11 48.21052 16.42137 35237 ft 457 kts 113°
2026-04-22 10:11 48.18303 16.50679 35258 ft 458 kts 114°
2026-04-22 10:12 48.15528 16.59267 35252 ft 458 kts 114°
2026-04-22 10:12 48.12741 16.67834 35244 ft 458 kts 114°
2026-04-22 10:13 48.09947 16.76423 35246 ft 458 kts 114°
2026-04-22 10:13 48.07153 16.84997 35238 ft 458 kts 114°
2026-04-22 10:14 48.04354 16.93554 35217 ft 459 kts 114°
2026-04-22 10:14 48.01539 17.02123 35205 ft 459 kts 114°
2026-04-22 10:15 47.98713 17.10692 35211 ft 460 kts 114°
2026-04-22 10:15 47.95899 17.19209 35224 ft 460 kts 114°
2026-04-22 10:16 47.93056 17.27761 35223 ft 460 kts 114°
2026-04-22 10:16 47.90203 17.36309 35211 ft 460 kts 114°
2026-04-22 10:17 47.87827 17.43423 35208 ft 461 kts 114°
2026-04-22 10:17 47.84970 17.51955 35202 ft 461 kts 114°
2026-04-22 10:18 47.82106 17.60485 35216 ft 461 kts 115°
2026-04-22 10:18 47.79240 17.69010 35225 ft 460 kts 115°
2026-04-22 10:19 47.76364 17.77517 35225 ft 460 kts 115°
2026-04-22 10:19 47.73471 17.86021 35205 ft 460 kts 115°
2026-04-22 10:20 47.70573 17.94501 35209 ft 460 kts 115°
2026-04-22 10:20 47.67680 18.02979 35208 ft 460 kts 115°
2026-04-22 10:21 47.64799 18.11414 35200 ft 460 kts 115°
2026-04-22 10:21 47.61891 18.19881 35193 ft 460 kts 115°
2026-04-22 10:22 47.58965 18.28333 35179 ft 461 kts 115°
2026-04-22 10:22 47.56040 18.36771 35180 ft 461 kts 115°
2026-04-22 10:23 47.53110 18.45220 35179 ft 461 kts 115°
2026-04-22 10:23 47.50180 18.53653 35176 ft 461 kts 115°
2026-04-22 10:24 47.47236 18.62080 35175 ft 461 kts 116°
2026-04-22 10:24 47.44302 18.70439 35173 ft 461 kts 116°
2026-04-22 10:25 47.41339 18.78841 35169 ft 461 kts 116°
2026-04-22 10:25 47.38372 18.87236 35167 ft 461 kts 116°
2026-04-22 10:26 47.35406 18.95640 35166 ft 461 kts 116°
2026-04-22 10:26 47.32430 19.04013 35177 ft 461 kts 116°
2026-04-22 10:27 47.29443 19.12378 35178 ft 461 kts 116°
2026-04-22 10:27 47.26456 19.20739 35178 ft 461 kts 116°
2026-04-22 10:28 47.23472 19.29093 35172 ft 461 kts 116°
2026-04-22 10:28 47.20475 19.37420 35170 ft 461 kts 116°
2026-04-22 10:29 47.17460 19.45742 35163 ft 461 kts 117°
2026-04-22 10:29 47.14456 19.54010 35156 ft 461 kts 117°
2026-04-22 10:30 47.11406 19.62301 35157 ft 461 kts 117°
2026-04-22 10:30 47.08334 19.70572 35174 ft 461 kts 117°
2026-04-22 10:31 47.05258 19.78844 35161 ft 462 kts 117°
2026-04-22 10:31 47.02175 19.87119 35161 ft 462 kts 117°
2026-04-22 10:32 46.99094 19.95382 35158 ft 462 kts 117°
2026-04-22 10:32 46.96001 20.03641 35153 ft 462 kts 117°
2026-04-22 10:33 46.92894 20.11905 35154 ft 463 kts 118°
2026-04-22 10:33 46.89784 20.20140 35148 ft 463 kts 118°
2026-04-22 10:34 46.86664 20.28389 35140 ft 463 kts 118°
2026-04-22 10:34 46.83542 20.36621 35135 ft 463 kts 118°
2026-04-22 10:35 46.80432 20.44796 35136 ft 463 kts 118°
2026-04-22 10:35 46.77273 20.53069 35129 ft 464 kts 118°
2026-04-22 10:36 46.74141 20.61222 35128 ft 464 kts 118°
2026-04-22 10:36 46.70981 20.69453 35127 ft 465 kts 118°
2026-04-22 10:37 46.66240 20.81775 35124 ft 466 kts 118°
2026-04-22 10:38 46.63060 20.90001 35129 ft 466 kts 118°
2026-04-22 10:38 46.59868 20.98218 35130 ft 466 kts 119°
2026-04-22 10:39 46.56668 21.06426 35134 ft 467 kts 119°
2026-04-22 10:39 46.53460 21.14634 35132 ft 467 kts 119°
2026-04-22 10:40 46.50250 21.22843 35130 ft 467 kts 119°
2026-04-22 10:40 46.47054 21.30982 35126 ft 467 kts 119°
2026-04-22 10:41 46.43827 21.39165 35120 ft 467 kts 119°
2026-04-22 10:41 46.40589 21.47357 35117 ft 468 kts 119°
2026-04-22 10:42 46.37334 21.55566 35114 ft 469 kts 119°
2026-04-22 10:42 46.34102 21.63698 35104 ft 469 kts 120°
2026-04-22 10:43 46.30814 21.71933 35098 ft 470 kts 120°
2026-04-22 10:43 46.27559 21.80076 35084 ft 471 kts 120°
2026-04-22 10:44 46.24267 21.88293 35084 ft 472 kts 120°
2026-04-22 10:44 46.20965 21.96508 35088 ft 473 kts 120°
2026-04-22 10:45 46.17654 22.04722 35095 ft 474 kts 120°
2026-04-22 10:45 46.14331 22.12923 35103 ft 473 kts 120°
2026-04-22 10:46 46.11006 22.21098 35109 ft 473 kts 120°
2026-04-22 10:46 46.07681 22.29263 35112 ft 472 kts 120°
2026-04-22 10:47 46.04373 22.37363 35112 ft 472 kts 120°
2026-04-22 10:47 46.01054 22.45514 35109 ft 472 kts 120°
2026-04-22 10:48 45.97725 22.53678 35108 ft 473 kts 120°
2026-04-22 10:48 45.94387 22.61825 35108 ft 473 kts 120°
2026-04-22 10:49 45.91044 22.69963 35101 ft 473 kts 121°
2026-04-22 10:49 45.87691 22.78105 35098 ft 474 kts 121°
2026-04-22 10:50 45.84323 22.86250 35101 ft 475 kts 121°
2026-04-22 10:50 45.80950 22.94391 35101 ft 475 kts 121°
2026-04-22 10:51 45.77558 23.02527 35100 ft 475 kts 121°
2026-04-22 10:51 45.74168 23.10672 35096 ft 476 kts 121°
2026-04-22 10:52 45.70798 23.18755 35091 ft 476 kts 121°
2026-04-22 10:52 45.67386 23.26880 35092 ft 476 kts 121°
2026-04-22 10:53 45.63972 23.34980 35086 ft 476 kts 122°
2026-04-22 10:53 45.60554 23.43095 35089 ft 476 kts 122°
2026-04-22 10:54 45.57134 23.51208 35081 ft 477 kts 122°
2026-04-22 10:54 45.53701 23.59309 35082 ft 477 kts 122°
2026-04-22 10:55 45.50256 23.67400 35080 ft 477 kts 122°
2026-04-22 10:55 45.46805 23.75478 35069 ft 477 kts 122°
2026-04-22 10:56 45.43342 23.83564 35071 ft 478 kts 122°
2026-04-22 10:56 45.39881 23.91636 35069 ft 478 kts 122°
2026-04-22 10:57 45.36406 23.99708 35056 ft 478 kts 122°
2026-04-22 10:57 45.32926 24.07769 35068 ft 479 kts 122°
2026-04-22 10:58 45.29463 24.15783 35065 ft 479 kts 122°
2026-04-22 10:58 45.25971 24.23840 35067 ft 479 kts 123°
2026-04-22 10:59 45.22467 24.31888 35060 ft 479 kts 123°
2026-04-22 10:59 45.18952 24.39931 35057 ft 480 kts 123°
2026-04-22 11:00 45.15434 24.47975 35059 ft 480 kts 123°
2026-04-22 11:00 45.11908 24.56011 35050 ft 480 kts 123°
2026-04-22 11:01 45.08367 24.64047 35052 ft 481 kts 123°
2026-04-22 11:01 45.04822 24.72078 35045 ft 481 kts 123°
2026-04-22 11:02 45.01870 24.78746 35053 ft 481 kts 123°
2026-04-22 11:02 44.98313 24.86767 35051 ft 482 kts 123°
2026-04-22 11:03 44.94155 24.96102 35056 ft 483 kts 124°
2026-04-22 11:03 44.91157 25.02814 35054 ft 483 kts 124°
2026-04-22 11:04 44.87595 25.10785 35053 ft 483 kts 124°
2026-04-22 11:04 44.84006 25.18792 35051 ft 483 kts 124°
2026-04-22 11:05 44.80403 25.26788 35055 ft 484 kts 124°
2026-04-22 11:05 44.76784 25.34798 35060 ft 484 kts 124°
2026-04-22 11:06 44.73168 25.42796 35063 ft 484 kts 124°
2026-04-22 11:06 44.69546 25.50778 35065 ft 484 kts 124°
2026-04-22 11:07 44.65908 25.58751 35071 ft 485 kts 124°
2026-04-22 11:07 44.62266 25.66732 35072 ft 485 kts 124°
2026-04-22 11:08 44.58631 25.74699 35066 ft 485 kts 125°
2026-04-22 11:08 44.54974 25.82659 35065 ft 486 kts 125°
2026-04-22 11:09 44.51313 25.90620 35070 ft 486 kts 125°
2026-04-22 11:09 44.47661 25.98534 35077 ft 487 kts 125°
2026-04-22 11:10 44.43976 26.06496 35075 ft 487 kts 125°
2026-04-22 11:10 44.40286 26.14446 35077 ft 487 kts 125°
2026-04-22 11:11 44.36595 26.22391 35080 ft 488 kts 125°
2026-04-22 11:11 44.32886 26.30342 35061 ft 488 kts 126°
2026-04-22 11:12 44.29172 26.38281 35069 ft 488 kts 126°
2026-04-22 11:12 44.25452 26.46204 35072 ft 488 kts 126°
2026-04-22 11:13 44.21714 26.54139 35068 ft 487 kts 126°
2026-04-22 11:13 44.19884 26.58028 35261 ft 486 kts 126°
2026-04-22 11:13 44.18020 26.61986 35600 ft 485 kts 126°
2026-04-22 11:13 44.16147 26.65954 35846 ft 485 kts 126°
2026-04-22 11:14 44.14307 26.69839 36071 ft 486 kts 126°
2026-04-22 11:14 44.12441 26.73769 36335 ft 486 kts 126°
2026-04-22 11:14 44.10576 26.77694 36589 ft 486 kts 126°
2026-04-22 11:14 44.08712 26.81614 36838 ft 486 kts 126°
2026-04-22 11:15 44.06877 26.85554 37022 ft 487 kts 124°
2026-04-22 11:15 44.03423 26.93660 37065 ft 487 kts 121°
2026-04-22 11:16 44.00097 27.01875 37060 ft 487 kts 121°
2026-04-22 11:16 43.96722 27.10031 37058 ft 487 kts 122°
2026-04-22 11:17 43.93290 27.18062 37063 ft 486 kts 123°
2026-04-22 11:17 43.89826 27.26117 37065 ft 486 kts 123°
2026-04-22 11:18 43.86381 27.34175 37074 ft 486 kts 123°
2026-04-22 11:18 43.82935 27.42241 37076 ft 486 kts 123°
2026-04-22 11:19 43.79486 27.50302 37072 ft 487 kts 123°
2026-04-22 11:19 43.76020 27.58352 37074 ft 487 kts 123°
2026-04-22 11:20 43.72547 27.66394 37078 ft 487 kts 123°
2026-04-22 11:20 43.69079 27.74389 37070 ft 487 kts 123°
2026-04-22 11:21 43.65587 27.82420 37057 ft 487 kts 124°
2026-04-22 11:21 43.62094 27.90440 37060 ft 488 kts 124°
2026-04-22 11:22 43.58591 27.98474 37066 ft 488 kts 124°
2026-04-22 11:22 43.55082 28.06503 37066 ft 488 kts 124°
2026-04-22 11:23 43.51585 28.14459 37062 ft 489 kts 124°
2026-04-22 11:23 43.48052 28.22470 37062 ft 489 kts 124°
2026-04-22 11:24 43.44519 28.30478 37046 ft 489 kts 124°
2026-04-22 11:24 43.40990 28.38480 37055 ft 489 kts 124°
2026-04-22 11:25 43.37446 28.46468 37060 ft 490 kts 125°
2026-04-22 11:25 43.33908 28.54473 37073 ft 491 kts 121°
2026-04-22 11:26 43.31246 28.63149 37061 ft 494 kts 114°
2026-04-22 11:26 43.28776 28.71959 37071 ft 495 kts 114°
2026-04-22 11:27 43.26286 28.80759 37078 ft 495 kts 114°
2026-04-22 11:27 43.23813 28.89499 37071 ft 495 kts 114°
2026-04-22 11:28 43.21316 28.98299 37079 ft 495 kts 114°
2026-04-22 11:28 43.18810 29.07083 37093 ft 495 kts 114°
2026-04-22 11:29 43.16289 29.15862 37101 ft 495 kts 114°
2026-04-22 11:29 43.13762 29.24646 37077 ft 496 kts 114°
2026-04-22 11:30 43.11242 29.33430 37083 ft 496 kts 114°
2026-04-22 11:30 43.08699 29.42227 37089 ft 497 kts 115°
2026-04-22 11:31 43.06160 29.50962 37093 ft 497 kts 115°
2026-04-22 11:31 43.03599 29.59734 37093 ft 497 kts 115°
2026-04-22 11:32 43.01038 29.68506 37092 ft 497 kts 115°
2026-04-22 11:32 42.98490 29.77265 37091 ft 496 kts 115°
2026-04-22 11:33 42.95921 29.86017 37086 ft 496 kts 115°
2026-04-22 11:33 42.93331 29.94758 37088 ft 496 kts 115°
2026-04-22 11:34 42.90735 30.03488 37088 ft 497 kts 115°
2026-04-22 11:34 42.88138 30.12224 37070 ft 497 kts 115°
2026-04-22 11:35 42.85541 30.20959 37078 ft 497 kts 115°
2026-04-22 11:35 42.82938 30.29683 37084 ft 497 kts 116°
2026-04-22 11:36 42.80316 30.38399 37088 ft 497 kts 116°
2026-04-22 11:36 42.77700 30.47063 37082 ft 498 kts 116°
2026-04-22 11:37 42.75058 30.55771 37085 ft 498 kts 115°
2026-04-22 11:37 42.73362 30.64944 37084 ft 504 kts 99°
2026-04-22 11:38 42.72420 30.74385 37062 ft 504 kts 100°
2026-04-22 11:38 42.70977 30.88559 37063 ft 505 kts 100°
2026-04-22 11:39 42.70001 30.98032 37069 ft 506 kts 100°
2026-04-22 11:39 42.69013 31.07499 37073 ft 506 kts 100°
2026-04-22 11:40 42.68011 31.16964 37050 ft 506 kts 100°
2026-04-22 11:40 42.67005 31.26432 37058 ft 507 kts 100°
2026-04-22 11:41 42.65988 31.35925 37065 ft 507 kts 100°
2026-04-22 11:41 42.64969 31.45402 37081 ft 508 kts 100°
2026-04-22 11:42 42.63943 31.54899 37073 ft 508 kts 101°
2026-04-22 11:42 42.62917 31.64312 37077 ft 507 kts 101°
2026-04-22 11:43 42.61875 31.73775 37078 ft 507 kts 101°
2026-04-22 11:43 42.60824 31.83250 37048 ft 507 kts 101°
2026-04-22 11:44 42.59765 31.92700 37067 ft 507 kts 101°
2026-04-22 11:44 42.58693 32.02154 37070 ft 507 kts 101°
2026-04-22 11:45 42.57641 32.11602 37073 ft 506 kts 101°
2026-04-22 11:45 42.56578 32.21048 37054 ft 506 kts 101°
2026-04-22 11:46 42.55483 32.30504 37062 ft 507 kts 102°
2026-04-22 11:46 42.54375 32.39950 37063 ft 507 kts 101°
2026-04-22 11:47 42.53271 32.49383 37065 ft 507 kts 101°
2026-04-22 11:47 42.52174 32.58786 37048 ft 507 kts 101°
2026-04-22 11:48 42.51063 32.68214 37051 ft 507 kts 101°
2026-04-22 11:48 42.49929 32.77651 37052 ft 507 kts 101°
2026-04-22 11:49 42.48792 32.87065 37049 ft 507 kts 101°
2026-04-22 11:49 42.47843 32.94905 37055 ft 507 kts 102°
2026-04-22 11:50 42.46693 33.04324 37054 ft 507 kts 102°
2026-04-22 11:50 42.45537 33.13754 37058 ft 507 kts 102°
2026-04-22 11:51 42.44379 33.23176 37050 ft 507 kts 102°
2026-04-22 11:51 42.43206 33.32598 37049 ft 506 kts 102°
2026-04-22 11:52 42.42025 33.41974 37072 ft 505 kts 102°
2026-04-22 11:52 42.40838 33.51327 37070 ft 504 kts 102°
2026-04-22 11:53 42.39644 33.60680 37064 ft 504 kts 102°
2026-04-22 11:53 42.38460 33.69943 37054 ft 503 kts 102°
2026-04-22 11:54 42.37268 33.79268 37062 ft 502 kts 103°
2026-04-22 11:54 42.36059 33.88557 37062 ft 501 kts 103°
2026-04-22 11:55 42.34847 33.97832 37060 ft 501 kts 103°
2026-04-22 11:55 42.33641 34.07100 37063 ft 500 kts 103°
2026-04-22 11:56 42.32424 34.16354 37051 ft 500 kts 103°
2026-04-22 11:56 42.31194 34.25588 37062 ft 499 kts 103°
2026-04-22 11:57 42.29955 34.34823 37032 ft 499 kts 103°
2026-04-22 11:57 42.28721 34.44032 37040 ft 498 kts 103°
2026-04-22 11:58 42.27493 34.53177 37057 ft 498 kts 103°
2026-04-22 11:58 42.26244 34.62362 37055 ft 497 kts 103°
2026-04-22 11:59 42.24980 34.71543 37025 ft 497 kts 104°
2026-04-22 11:59 42.23712 34.80720 37034 ft 497 kts 104°
2026-04-22 12:00 42.22437 34.89872 37038 ft 497 kts 104°
2026-04-22 12:00 42.21154 34.99030 37039 ft 497 kts 104°
2026-04-22 12:01 42.19862 35.08195 37036 ft 497 kts 104°
2026-04-22 12:01 42.18575 35.17329 37034 ft 496 kts 104°
2026-04-22 12:02 42.17274 35.26474 37038 ft 496 kts 104°
2026-04-22 12:02 42.15958 35.35603 37040 ft 496 kts 104°
2026-04-22 12:03 42.14639 35.44733 37016 ft 496 kts 104°
2026-04-22 12:03 42.13328 35.53805 37037 ft 496 kts 104°
2026-04-22 12:04 42.12003 35.62930 37034 ft 496 kts 104°
2026-04-22 12:04 42.10669 35.72044 37030 ft 496 kts 104°
2026-04-22 12:05 42.09324 35.81163 37021 ft 496 kts 104°
2026-04-22 12:05 42.07975 35.90279 37025 ft 496 kts 104°
2026-04-22 12:06 42.06620 35.99385 37033 ft 496 kts 104°
2026-04-22 12:06 42.05249 36.08499 37032 ft 496 kts 105°
2026-04-22 12:07 42.03876 36.17605 37024 ft 496 kts 104°
2026-04-22 12:07 42.02507 36.26695 37033 ft 496 kts 105°
2026-04-22 12:08 42.01120 36.35777 37038 ft 495 kts 105°
2026-04-22 12:08 41.99724 36.44838 37025 ft 495 kts 105°
2026-04-22 12:09 41.98330 36.53906 37037 ft 495 kts 105°
2026-04-22 12:09 41.96934 36.62900 37034 ft 495 kts 105°
2026-04-22 12:10 41.95515 36.71957 37033 ft 495 kts 105°
2026-04-22 12:10 41.94106 36.80998 37018 ft 495 kts 105°
2026-04-22 12:11 41.92692 36.90045 37015 ft 495 kts 105°
2026-04-22 12:11 41.91261 36.99080 37023 ft 495 kts 105°
2026-04-22 12:12 41.90328 37.08261 37019 ft 499 kts 93°
2026-04-22 12:12 41.90203 37.17565 37003 ft 499 kts 93°
2026-04-22 12:13 41.90071 37.26877 37018 ft 499 kts 93°
2026-04-22 12:13 41.89928 37.36189 37026 ft 499 kts 93°
2026-04-22 12:14 41.89778 37.45496 37030 ft 499 kts 93°
2026-04-22 12:14 41.89611 37.54813 37028 ft 499 kts 93°
2026-04-22 12:15 41.89441 37.64119 37013 ft 499 kts 93°
2026-04-22 12:15 41.89287 37.73422 37020 ft 499 kts 93°
2026-04-22 12:16 41.89110 37.82728 37024 ft 499 kts 94°
2026-04-22 12:16 41.88907 37.92031 37026 ft 499 kts 94°
2026-04-22 12:17 41.88704 38.01343 37005 ft 499 kts 94°
2026-04-22 12:17 41.88504 38.10597 37012 ft 499 kts 94°
2026-04-22 12:18 41.88302 38.19888 37023 ft 498 kts 94°
2026-04-22 12:18 41.88082 38.29184 37019 ft 498 kts 94°
2026-04-22 12:19 41.87850 38.38486 37020 ft 498 kts 94°
2026-04-22 12:19 41.87604 38.47789 37005 ft 498 kts 94°
2026-04-22 12:20 41.87358 38.57093 37015 ft 498 kts 94°
2026-04-22 12:20 41.87113 38.66377 37019 ft 498 kts 94°
2026-04-22 12:21 41.86857 38.75610 37020 ft 498 kts 94°
2026-04-22 12:21 41.86593 38.84886 37023 ft 498 kts 94°
2026-04-22 12:22 41.86319 38.94192 37014 ft 498 kts 94°
2026-04-22 12:22 41.86028 39.03483 37017 ft 498 kts 94°
2026-04-22 12:23 41.85729 39.12755 37018 ft 498 kts 94°
2026-04-22 12:23 41.85433 39.22038 37017 ft 498 kts 94°
2026-04-22 12:24 41.85136 39.31317 37005 ft 498 kts 94°
2026-04-22 12:24 41.84829 39.40536 37010 ft 498 kts 94°
2026-04-22 12:25 41.84503 39.49804 37014 ft 498 kts 94°
2026-04-22 12:25 41.84180 39.59075 37013 ft 498 kts 94°
2026-04-22 12:26 41.83855 39.68356 37027 ft 498 kts 94°
2026-04-22 12:26 41.83514 39.77626 37010 ft 497 kts 94°
2026-04-22 12:27 41.83165 39.86892 37010 ft 497 kts 94°
2026-04-22 12:27 41.82815 39.96148 37015 ft 497 kts 95°
2026-04-22 12:28 41.82453 40.05391 37008 ft 497 kts 95°
2026-04-22 12:28 41.82085 40.14640 36992 ft 496 kts 94°
2026-04-22 12:29 41.81730 40.23869 37017 ft 496 kts 95°
2026-04-22 12:29 41.81354 40.33097 37012 ft 496 kts 95°
2026-04-22 12:30 41.80771 40.46869 37002 ft 496 kts 95°
2026-04-22 12:31 41.80370 40.56088 37006 ft 495 kts 95°
2026-04-22 12:31 41.79943 40.65312 37004 ft 495 kts 95°
2026-04-22 12:32 41.79490 40.74531 36999 ft 495 kts 95°
2026-04-22 12:32 41.78802 40.88345 37006 ft 496 kts 95°
2026-04-22 12:33 41.78341 40.97578 36988 ft 496 kts 95°
2026-04-22 12:33 41.77874 41.06787 36999 ft 496 kts 96°
2026-04-22 12:34 41.77403 41.15948 37011 ft 496 kts 96°
2026-04-22 12:34 41.76922 41.25160 37019 ft 496 kts 96°
2026-04-22 12:35 41.76442 41.34374 37027 ft 496 kts 96°
2026-04-22 12:35 41.75952 41.43590 37037 ft 495 kts 96°
2026-04-22 12:36 41.75533 41.51245 37039 ft 495 kts 96°
2026-04-22 12:36 41.74933 41.61962 37018 ft 495 kts 96°
2026-04-22 12:37 41.74484 41.69679 37018 ft 495 kts 96°
2026-04-22 12:37 41.73950 41.78830 36995 ft 495 kts 96°
2026-04-22 12:38 41.73420 41.88023 37011 ft 495 kts 96°
2026-04-22 12:38 41.72888 41.97197 37004 ft 494 kts 96°
2026-04-22 12:39 41.72069 42.10948 36995 ft 495 kts 96°
2026-04-22 12:40 41.71493 42.20143 36975 ft 495 kts 96°
2026-04-22 12:40 41.70910 42.29325 36973 ft 495 kts 96°
2026-04-22 12:41 41.70336 42.38491 36969 ft 495 kts 96°
2026-04-22 12:41 41.69766 42.47627 36969 ft 495 kts 96°
2026-04-22 12:42 41.69175 42.56795 36970 ft 495 kts 96°
2026-04-22 12:42 41.68569 42.65972 36961 ft 495 kts 96°
2026-04-22 12:42 41.68265 42.70576 36818 ft 496 kts 96°
2026-04-22 12:43 41.67962 42.75181 36204 ft 498 kts 96°
2026-04-22 12:43 41.67655 42.79815 35420 ft 502 kts 96°
2026-04-22 12:43 41.67346 42.84473 34602 ft 506 kts 96°
2026-04-22 12:43 41.67030 42.89194 33823 ft 510 kts 96°
2026-04-22 12:44 41.66716 42.93857 32941 ft 512 kts 96°
2026-04-22 12:44 41.66391 42.98634 32433 ft 506 kts 96°
2026-04-22 12:44 41.66077 43.03230 31877 ft 501 kts 96°
2026-04-22 12:44 41.65754 43.07903 31344 ft 496 kts 96°
2026-04-22 12:45 41.65434 43.12484 30800 ft 493 kts 96°
2026-04-22 12:45 41.65113 43.17028 30264 ft 489 kts 96°
2026-04-22 12:45 41.64793 43.21485 29675 ft 486 kts 96°
2026-04-22 12:45 41.64471 43.25950 29148 ft 480 kts 96°
2026-04-22 12:46 41.64153 43.30363 28624 ft 475 kts 96°
2026-04-22 12:46 41.63839 43.34742 28098 ft 470 kts 96°
2026-04-22 12:46 41.63529 43.39072 27586 ft 465 kts 96°
2026-04-22 12:46 41.63221 43.43349 27079 ft 460 kts 96°
2026-04-22 12:47 41.62913 43.47582 26596 ft 455 kts 96°
2026-04-22 12:47 41.62609 43.51763 26122 ft 450 kts 96°
2026-04-22 12:47 41.62308 43.55899 25659 ft 445 kts 96°
2026-04-22 12:47 41.62009 43.59998 25207 ft 441 kts 96°
2026-04-22 12:48 41.61713 43.64071 24763 ft 438 kts 96°
2026-04-22 12:48 41.61417 43.68106 24321 ft 435 kts 96°
2026-04-22 12:48 41.61122 43.72086 23880 ft 432 kts 96°
2026-04-22 12:48 41.60825 43.76068 23422 ft 429 kts 96°
2026-04-22 12:49 41.60526 43.80029 22941 ft 426 kts 96°
2026-04-22 12:49 41.60227 43.83949 22476 ft 422 kts 96°
2026-04-22 12:49 41.59930 43.87833 22035 ft 417 kts 96°
2026-04-22 12:49 41.59635 43.91671 21568 ft 414 kts 96°
2026-04-22 12:50 41.59344 43.95471 21114 ft 410 kts 96°
2026-04-22 12:50 41.59053 43.99244 20621 ft 408 kts 96°
2026-04-22 12:50 41.58765 44.03007 20148 ft 405 kts 96°
2026-04-22 12:50 41.58480 44.06736 19668 ft 402 kts 97°
2026-04-22 12:51 41.58192 44.10437 19191 ft 400 kts 97°
2026-04-22 12:51 41.57902 44.14107 18707 ft 397 kts 97°
2026-04-22 12:51 41.57609 44.17773 18210 ft 395 kts 97°
2026-04-22 12:51 41.57319 44.21414 17698 ft 393 kts 97°
2026-04-22 12:52 41.57005 44.25010 17204 ft 389 kts 99°
2026-04-22 12:52 41.56599 44.28576 16733 ft 385 kts 101°
2026-04-22 12:52 41.56132 44.32089 16254 ft 382 kts 102°
2026-04-22 12:52 41.55644 44.35554 15785 ft 379 kts 102°
2026-04-22 12:53 41.55153 44.39007 15309 ft 377 kts 102°
2026-04-22 12:53 41.54673 44.42437 14838 ft 374 kts 102°
2026-04-22 12:53 41.54209 44.45838 14380 ft 372 kts 102°
2026-04-22 12:53 41.53766 44.49176 13907 ft 370 kts 102°
2026-04-22 12:54 41.53323 44.52575 13398 ft 367 kts 102°
2026-04-22 12:54 41.52889 44.55919 12932 ft 364 kts 102°
2026-04-22 12:54 41.52456 44.59229 12460 ft 361 kts 102°
2026-04-22 12:54 41.52022 44.62518 12008 ft 358 kts 102°
2026-04-22 12:55 41.51590 44.65773 11578 ft 355 kts 101°
2026-04-22 12:55 41.51162 44.68995 11195 ft 351 kts 101°
2026-04-22 12:55 41.50735 44.72183 10722 ft 346 kts 101°
2026-04-22 12:55 41.50314 44.75301 10197 ft 337 kts 101°
2026-04-22 12:56 41.49904 44.78336 9738 ft 327 kts 101°
2026-04-22 12:56 41.49513 44.81234 9502 ft 310 kts 101°
2026-04-22 12:56 41.49138 44.84035 9121 ft 305 kts 101°
2026-04-22 12:56 41.48764 44.86802 8842 ft 302 kts 101°
2026-04-22 12:57 41.48391 44.89537 8574 ft 298 kts 101°
2026-04-22 12:57 41.48019 44.92258 8193 ft 298 kts 101°
2026-04-22 12:57 41.47646 44.94978 7819 ft 298 kts 101°
2026-04-22 12:57 41.47278 44.97656 7446 ft 289 kts 100°
2026-04-22 12:58 41.46925 45.00242 7103 ft 279 kts 100°
2026-04-22 12:58 41.46584 45.02750 6743 ft 271 kts 100°
2026-04-22 12:58 41.46487 45.05174 6385 ft 262 kts 78°
2026-04-22 12:58 41.47177 45.07354 6046 ft 252 kts 51°
2026-04-22 12:59 41.48327 45.09037 5793 ft 243 kts 45°
2026-04-22 12:59 41.49478 45.10658 5584 ft 238 kts 45°
2026-04-22 12:59 41.50616 45.12207 5464 ft 229 kts 38°
2026-04-22 12:59 41.52035 45.12912 5351 ft 216 kts 356°
2026-04-22 13:00 41.53356 45.12186 5274 ft 204 kts 314°
2026-04-22 13:00 41.54215 45.10732 5085 ft 198 kts 312°
2026-04-22 13:00 41.55246 45.09535 4707 ft 196 kts 325°
2026-04-22 13:00 41.56307 45.08403 4247 ft 196 kts 320°
2026-04-22 13:01 41.57299 45.07208 3813 ft 186 kts 318°
2026-04-22 13:01 41.58214 45.06068 3579 ft 174 kts 317°
2026-04-22 13:01 41.59062 45.05005 3384 ft 158 kts 317°
2026-04-22 13:01 41.59843 45.04023 3158 ft 151 kts 316°
2026-04-22 13:02 41.60599 45.03072 2945 ft 149 kts 316°
2026-04-22 13:02 41.61354 45.02121 2748 ft 149 kts 314°
2026-04-22 13:02 41.62111 45.01168 2551 ft 149 kts 315°
2026-04-22 13:02 41.62871 45.00216 2335 ft 149 kts 313°
2026-04-22 13:03 41.63616 44.99255 2157 ft 149 kts 315°
2026-04-22 13:03 41.64369 44.98322 2010 ft 148 kts 315°
2026-04-22 13:03 41.65105 44.97373 1789 ft 146 kts 316°
2026-04-22 13:03 41.65845 44.96459 1572 ft 144 kts 317°
2026-04-22 13:04 41.66507 44.95626 1536 ft 110 kts 316°
2026-04-22 13:04 41.66940 44.95078 1561 ft 61 kts 316°
2026-04-22 13:04 41.67222 44.94723 1566 ft 53 kts 317°
2026-04-22 13:04 41.67426 44.94463 1571 ft 19 kts 316°
2026-04-22 13:05 41.67496 44.94395 1574 ft 10 kts
2026-04-22 13:05 41.67542 44.94460 1577 ft 9 kts 62°
2026-04-22 13:05 41.67566 44.94532 1578 ft 9 kts 69°
2026-04-22 13:05 41.67584 44.94621 1578 ft 11 kts 74°
2026-04-22 13:06 41.67610 44.94737 1576 ft 15 kts 73°
2026-04-22 13:06 41.67643 44.94884 1575 ft 18 kts 72°
2026-04-22 13:06 41.67666 44.95022 1573 ft 13 kts 105°
2026-04-22 13:06 41.67605 44.95129 1571 ft 16 kts 133°
2026-04-22 13:07 41.67520 44.95249 1568 ft 19 kts 133°
2026-04-22 13:07 41.67422 44.95385 1565 ft 21 kts 134°
2026-04-22 13:07 41.67318 44.95540 1562 ft 24 kts 126°
2026-04-22 13:07 41.67222 44.95684 1558 ft 15 kts 137°
2026-04-22 13:08 41.67137 44.95783 1556 ft 18 kts 133°
2026-04-22 13:08 41.67047 44.95909 1553 ft 20 kts 134°
2026-04-22 13:08 41.66957 44.96041 1550 ft 16 kts 128°
2026-04-22 13:08 41.66901 44.96160 1542 ft 16 kts 132°
2026-04-22 13:09 41.66820 44.96276 1540 ft 18 kts 135°
2026-04-22 13:09 41.66770 44.96355 1542 ft 8 kts 102°
2026-04-22 13:09 41.66787 44.96392 1533 ft 4 kts 44°
2026-04-22 13:09 41.66808 44.96419 1542 ft 4 kts 44°
2026-04-22 13:10 41.66817 44.96431 1536 ft 0 kts 44°